Hyeres, France

2:20 AM CEST on May 30, 2017 (GMT +0200)
Le Palyvestre Navy

Weather History for LFTH - November, 2013

Change the Weather History Date:

Monday, November 11, 2013

  Actual Average Record
Temperature  
Mean Temperature 57 °F -  
Max Temperature 64 °F 58 °F 71 °F (2001)
Min Temperature 50 °F 45 °F 39 °F (2010)
Degree Days  
Heating Degree Days 8    
Growing Degree Days 7 (Base 50)    
Moisture  
Dew Point 24 °F    
Average Humidity 30    
Maximum Humidity 41    
Minimum Humidity 22    
Precipitation  
Precipitation 0.00 in - - ()
Sea Level Pressure  
Sea Level Pressure 29.89 in    
Wind  
Wind Speed 16 mph ()    
Max Wind Speed 28 mph    
Max Gust Speed 40 mph    
Visibility 6.2 miles    
Events      
Averages and records for this station are not official NWS values.
T = Trace of Precipitation, MM = Missing Value Source: Averaged Metar Reports

Daily Weather History Graph

Daily Weather History Graph

Search for Another Location

Airport or City:

Trip Planner

Search our weather history database for the weather conditions in past years. The results will help you decide how hot, cold, wet, or windy it might be!

Date:

Astronomy

Nov. 11, 2013 Rise Set
Actual Time 7:22 AM CET 5:15 PM CET
Civil Twilight 6:52 AM CET 5:45 PM CET
Nautical Twilight 6:18 AM CET 6:19 PM CET
Astronomical Twilight 5:45 AM CET 6:53 PM CET
Moon 1:56 PM CET (11/11) 12:40 AM CET (11/11)
Length of Visible Light 10h 53m
Length of Day
9h 52m
Waxing Gibbous, 63% of the Moon is Illuminated
Nov 11
Waxing Gibbous
Nov 17
Full
Nov 25
Last Quarter
Dec 3
New
Dec 9
First Quarter

Hourly Weather History & Observations

Time (CET) Temp. Dew Point Humidity Pressure Visibility Wind Dir Wind Speed Gust Speed Precip Events Conditions
12:00 AM 51.8 °F 19.4 °F 28% 29.83 in 6.2 mi NW 23.0 mph 36.8 mph N/A   Unknown
12:30 AM 51.8 °F 19.4 °F 28% 29.80 in 6.2 mi WNW 27.6 mph 40.3 mph N/A   Unknown
1:00 AM 51.8 °F 19.4 °F 28% 29.83 in 6.2 mi WNW 17.3 mph - N/A   Unknown
1:30 AM 51.8 °F 19.4 °F 28% 29.83 in 6.2 mi NW 19.6 mph 38.0 mph N/A   Unknown
2:00 AM 51.8 °F 19.4 °F 28% 29.83 in 6.2 mi NNW 21.9 mph - N/A   Unknown
2:30 AM 51.8 °F 21.2 °F 30% 29.83 in 6.2 mi NNW 23.0 mph 35.7 mph N/A   Unknown
3:00 AM 51.8 °F 21.2 °F 30% 29.80 in 6.2 mi NNW 23.0 mph 35.7 mph N/A   Unknown
3:30 AM 51.8 °F 21.2 °F 30% 29.80 in 6.2 mi NW 19.6 mph 35.7 mph N/A   Unknown
4:00 AM 51.8 °F 21.2 °F 30% 29.80 in 6.2 mi NNW 19.6 mph 34.5 mph N/A   Unknown
4:30 AM 51.8 °F 19.4 °F 28% 29.80 in 6.2 mi NNW 20.7 mph 34.5 mph N/A   Unknown
5:00 AM 51.8 °F 21.2 °F 30% 29.83 in 6.2 mi NNW 19.6 mph 36.8 mph N/A   Unknown
5:30 AM 51.8 °F 21.2 °F 30% 29.80 in 6.2 mi NNW 23.0 mph 35.7 mph N/A   Unknown
6:00 AM 51.8 °F 21.2 °F 30% 29.80 in 6.2 mi NNW 21.9 mph 36.8 mph N/A   Unknown
6:30 AM 50.0 °F 21.2 °F 32% 29.83 in 6.2 mi NNW 21.9 mph 34.5 mph N/A   Unknown
7:00 AM 50.0 °F 21.2 °F 32% 29.83 in 6.2 mi NNW 19.6 mph 31.1 mph N/A   Unknown
7:30 AM 50.0 °F 21.2 °F 32% 29.86 in 6.2 mi NNW 19.6 mph 33.4 mph N/A   Unknown
8:00 AM 51.8 °F 21.2 °F 30% 29.86 in 6.2 mi NNW 18.4 mph 31.1 mph N/A   Unknown
8:30 AM 51.8 °F 21.2 °F 30% 29.86 in 6.2 mi NNW 19.6 mph 32.2 mph N/A   Unknown
9:00 AM 53.6 °F 21.2 °F 28% 29.86 in 6.2 mi NNW 18.4 mph - N/A   Unknown
9:30 AM 55.4 °F 23.0 °F 29% 29.89 in 6.2 mi NNW 17.3 mph - N/A   Unknown
10:00 AM 55.4 °F 23.0 °F 29% 29.89 in 6.2 mi North 15.0 mph - N/A   Unknown
10:30 AM 57.2 °F 23.0 °F 27% 29.89 in 6.2 mi North 13.8 mph - N/A   Unknown
11:00 AM 59.0 °F 24.8 °F 27% 29.92 in 6.2 mi North 15.0 mph - N/A   Unknown
11:30 AM 59.0 °F 26.6 °F 29% 29.92 in 6.2 mi North 16.1 mph - N/A   Unknown
12:00 PM 60.8 °F 26.6 °F 27% 29.92 in 6.2 mi NNW 13.8 mph - N/A   Unknown
12:30 PM 62.6 °F 26.6 °F 26% 29.92 in 6.2 mi NNW 11.5 mph - N/A   Unknown
1:00 PM 62.6 °F 24.8 °F 24% 29.89 in 6.2 mi NNW 12.7 mph - N/A   Unknown
1:30 PM 64.4 °F 24.8 °F 22% 29.89 in 6.2 mi NNW 11.5 mph - N/A   Unknown
2:00 PM 64.4 °F 26.6 °F 24% 29.89 in 6.2 mi NNW 10.4 mph - N/A   Unknown
2:30 PM 64.4 °F 26.6 °F 24% 29.89 in 6.2 mi NW 9.2 mph - N/A   Unknown
3:00 PM 64.4 °F 26.6 °F 24% 29.89 in 6.2 mi NNW 10.4 mph - N/A   Unknown
3:30 PM 64.4 °F 26.6 °F 24% 29.89 in 6.2 mi NNW 8.1 mph - N/A   Unknown
4:00 PM 64.4 °F 26.6 °F 24% 29.92 in 6.2 mi NNW 9.2 mph - N/A   Unknown
4:30 PM 62.6 °F 28.4 °F 27% 29.92 in 6.2 mi NNW 6.9 mph - N/A   Unknown
5:00 PM 57.2 °F 30.2 °F 36% 29.92 in 6.2 mi NW 6.9 mph - N/A   Unknown
5:30 PM 57.2 °F 28.4 °F 33% 29.95 in 6.2 mi West 5.8 mph - N/A   Unknown
6:00 PM 55.4 °F 28.4 °F 36% 29.95 in 6.2 mi NW 8.1 mph - N/A   Unknown
6:30 PM 55.4 °F 26.6 °F 33% 29.95 in 6.2 mi NW 5.8 mph - N/A   Unknown
7:00 PM 55.4 °F 26.6 °F 33% 29.95 in 6.2 mi West 8.1 mph - N/A   Unknown
7:30 PM 51.8 °F 28.4 °F 41% 29.98 in 6.2 mi NNW 8.1 mph - N/A   Unknown
8:00 PM 55.4 °F 26.6 °F 33% 29.98 in 6.2 mi NNW 6.9 mph - N/A   Unknown
8:30 PM 53.6 °F 26.6 °F 35% 29.98 in 6.2 mi NW 4.6 mph - N/A   Unknown
9:00 PM 53.6 °F 26.6 °F 35% 30.01 in 6.2 mi WNW 4.6 mph - N/A   Unknown
9:30 PM 53.6 °F 26.6 °F 35% 30.01 in 6.2 mi NNW 11.5 mph - N/A   Unknown
10:00 PM 55.4 °F 26.6 °F 33% 30.01 in 6.2 mi NNW 10.4 mph - N/A   Unknown
10:30 PM 53.6 °F 26.6 °F 35% 30.01 in 6.2 mi NW 9.2 mph - N/A   Unknown
11:00 PM 53.6 °F 24.8 °F 33% 30.01 in 6.2 mi NNW 10.4 mph - N/A   Unknown
11:30 PM 53.6 °F 24.8 °F 33% 30.01 in 6.2 mi NNW 9.2 mph - N/A   Unknown